Date,TemperatureHighF,TemperatureAvgF,TemperatureLowF,DewpointHighF,DewpointAvgF,DewpointLowF,HumidityHigh,HumidityAvg,HumidityLow,PressureMaxIn,PressureMinIn,WindSpeedMaxMPH,WindSpeedAvgMPH,GustSpeedMaxMPH,PrecipitationSumIn
2013-1-1,57,54,51,52,46,41,87,73,54,30.09,29.88,14,1,14,0.28
2013-1-2,56,50,43,52,45,34,92,84,71,30.12,29.83,11,0,11,0.31
2013-1-3,44,42,39,37,34,30,82,71,65,30.18,30.09,10,0,10,0.08
2013-1-4,50,42,36,30,27,23,76,56,36,30.24,30.12,12,0,12,0.28
2013-1-5,49,43,36,34,24,19,64,49,35,30.33,30.18,9,0,9,0.00
2013-1-6,50,47,44,43,38,31,82,68,54,30.21,30.00,7,0,7,0.00
2013-1-7,53,47,41,43,32,26,81,57,37,30.39,30.03,19,1,19,0.00
2013-1-8,59,50,43,47,40,27,83,67,52,30.39,30.27,14,1,14,0.00
2013-1-9,66,57,49,53,50,45,90,78,61,30.36,30.27,5,0,5,0.00
2013-1-10,60,59,50,52,50,32,76,73,48,30.39,30.33,9,0,9,0.00
2013-1-11,50,50,50,33,33,33,51,51,51,30.36,30.36,0,0,0,0.00
2013-1-12,50,50,50,33,33,33,51,51,51,30.36,30.36,0,0,0,0.00
2013-1-13,50,50,50,33,33,33,51,51,51,30.36,30.36,0,0,0,0.00
2013-1-14,61,52,50,58,38,33,93,59,51,30.36,30.09,7,0,7,0.00
2013-1-15,62,59,56,60,56,53,97,91,84,30.12,30.00,9,0,9,0.00
2013-1-16,70,61,57,58,20,0,97,34,93,30.00,29.91,16,1,16,0.00
2013-1-17,73,59,47,0,0,0,0,0,100,29.91,29.74,22,2,22,0.00
2013-1-18,88,47,38,0,0,0,0,0,100,30.36,29.85,12,1,12,0.00
2013-3-25,52,49,45,42,30,22,82,49,37,29.74,29.50,24,5,24,0.00
2013-3-26,51,45,39,28,22,20,49,40,30,30.00,29.74,16,2,16,0.00
2013-3-27,57,48,39,26,22,18,50,36,25,30.12,30.00,18,2,18,0.00
2013-3-28,58,48,39,26,20,17,44,33,24,30.18,30.06,16,1,16,0.00
2013-3-29,60,50,40,36,25,20,53,38,24,30.27,30.15,15,2,15,0.00
2013-3-30,61,55,49,44,38,34,67,54,37,30.18,30.06,15,1,15,0.00
2013-3-31,63,57,51,53,48,39,84,72,58,30.09,29.80,17,3,17,0.00
2013-4-1,63,58,56,60,55,53,91,88,81,29.83,29.77,9,0,9,0.00
2013-4-2,60,55,50,54,36,25,90,52,27,30.06,29.83,11,0,11,0.00
2013-4-3,55,51,49,44,33,24,76,52,32,30.24,30.03,14,1,14,0.00
2013-4-4,60,52,48,59,39,29,97,64,47,30.24,29.71,30,5,30,0.00
2013-4-5,60,53,47,59,46,41,98,81,59,29.94,29.68,13,1,13,0.00
2013-4-6,62,53,47,43,35,28,84,55,28,30.24,29.94,14,3,14,0.00
2013-4-7,65,56,46,52,45,36,83,68,46,30.24,30.09,15,1,15,0.00
2013-4-8,69,62,56,56,54,50,86,74,61,30.15,30.06,12,2,12,0.00
2013-4-9,69,64,59,58,57,54,89,78,64,30.18,30.06,14,2,14,0.24
2013-4-10,71,64,60,62,58,55,93,80,57,30.09,29.97,12,1,12,0.00
2013-4-11,72,65,60,64,60,57,93,83,67,29.97,29.83,13,2,13,0.00
2013-4-12,68,65,63,66,63,61,96,91,86,29.83,29.65,18,1,18,1.30
2013-4-13,67,62,57,61,50,42,94,67,48,29.97,29.68,16,1,16,0.00
2013-4-14,68,61,53,55,50,45,87,68,45,30.06,29.97,11,0,11,0.00
2013-4-15,68,64,60,62,58,54,89,78,64,30.15,29.91,22,1,22,0.67
2013-4-16,73,66,62,64,60,56,95,80,60,30.21,30.12,12,1,12,0.00
2013-4-17,72,66,60,62,58,55,91,75,61,30.18,30.09,11,0,11,0.00
2013-4-18,73,68,63,62,60,58,88,75,59,30.15,30.03,12,1,12,0.00
2013-4-19,73,69,67,68,65,62,93,85,75,30.03,29.83,12,0,12,0.08
2013-4-20,69,60,55,66,50,39,94,70,49,30.21,29.83,13,0,13,1.54
2013-4-21,63,56,51,45,37,30,74,50,32,30.39,30.18,22,1,22,0.00
2013-4-22,58,54,50,50,45,33,86,73,50,30.36,30.09,12,1,12,0.00
2013-4-23,66,59,53,52,48,43,90,71,45,30.12,30.03,7,0,7,0.00
2013-4-24,69,62,55,60,53,47,83,74,59,30.15,30.00,9,1,9,0.00
2013-4-25,69,64,57,62,54,42,90,72,54,30.21,30.00,18,1,18,0.04
2013-4-26,68,60,51,48,40,29,80,51,25,30.33,30.21,16,1,16,0.00
2013-4-27,69,62,56,50,44,35,74,52,34,30.33,30.24,14,0,14,0.00
2013-4-28,69,64,58,55,45,33,69,51,31,30.24,30.06,12,1,12,0.00
2013-4-29,66,65,63,63,59,54,92,83,66,30.06,29.91,11,0,11,0.83
2013-4-30,71,66,63,65,61,57,95,83,65,30.06,29.91,12,0,12,0.00
2013-5-1,72,66,62,63,58,55,86,77,56,30.18,30.03,13,0,13,0.04
2013-5-2,69,64,61,63,57,50,93,77,51,30.21,30.15,16,1,16,0.08
2013-5-3,68,62,58,57,48,39,86,62,40,30.15,30.06,21,1,21,0.00
2013-5-4,65,60,56,55,52,45,90,75,58,30.09,29.97,19,1,19,0.04
2013-5-5,70,64,58,62,56,51,90,78,61,29.97,29.91,19,1,19,0.00
2013-5-6,67,66,63,64,60,57,92,83,75,29.91,29.83,16,0,16,0.83
2013-5-7,67,63,60,61,56,50,92,77,56,29.91,29.80,11,0,11,0.00
2013-5-8,71,66,60,60,56,49,87,71,46,29.97,29.88,16,1,16,0.00
2013-5-9,73,68,63,62,59,57,82,74,61,30.03,29.91,12,1,12,0.00
2013-5-10,74,69,64,66,62,59,89,79,64,30.03,29.97,10,1,10,0.00
2013-5-11,76,71,69,66,64,60,89,80,69,29.97,29.80,14,0,14,0.00
2013-5-12,77,72,68,66,58,40,90,64,33,29.91,29.74,12,0,12,0.00
2013-5-13,70,65,58,43,35,27,49,34,23,30.06,29.91,12,1,12,0.00
2013-5-14,70,62,53,42,34,26,53,35,22,30.18,30.06,15,0,15,0.00
2013-5-15,75,69,65,60,55,43,73,62,45,30.09,29.91,15,1,15,0.00
2013-5-16,76,71,68,64,62,59,80,73,61,29.94,29.85,17,1,17,0.00
2013-5-17,79,73,69,65,63,59,80,71,51,30.06,29.91,12,0,12,0.00
2013-5-18,77,73,69,68,66,64,89,80,71,30.12,30.06,9,0,9,0.00
2013-5-19,78,73,70,68,66,64,89,79,66,30.12,30.06,12,1,12,0.00
2013-5-20,78,74,71,67,66,64,84,76,66,30.09,30.03,12,1,12,0.00
2013-5-21,79,74,72,69,67,65,87,79,66,30.03,29.94,12,0,12,0.00
2013-5-22,81,75,72,70,68,65,89,79,65,30.00,29.94,13,1,13,0.00
2013-5-23,77,74,72,71,69,68,91,86,78,29.94,29.80,11,0,11,0.63
2013-5-24,80,73,64,70,56,35,92,59,32,30.09,29.71,13,1,13,0.00
2013-5-25,72,63,54,46,34,30,53,35,22,30.21,30.06,13,0,13,0.00
2013-5-26,72,66,60,52,48,43,70,53,37,30.18,30.09,9,0,9,0.00
2013-5-27,75,68,58,60,51,42,86,58,32,30.24,30.15,9,0,9,0.00
2013-5-28,79,72,66,66,62,58,82,70,58,30.24,30.15,11,1,11,0.00
2013-5-29,81,75,70,68,65,62,86,72,54,30.24,30.15,9,1,9,0.00
2013-5-30,81,76,70,69,66,63,85,74,62,30.24,30.15,9,0,9,0.00
2013-5-31,81,77,72,70,69,67,87,77,65,30.21,30.09,12,1,12,0.00
2013-6-1,83,77,74,71,68,66,87,74,58,30.12,30.03,9,0,9,0.00
2013-6-2,83,78,74,70,68,67,81,74,59,30.06,29.91,11,1,11,0.00
2013-6-3,79,74,71,72,70,66,93,86,78,29.94,29.83,18,0,18,0.63
2013-6-4,78,74,70,72,68,59,94,81,60,30.03,29.85,16,0,16,0.00
2013-6-5,79,74,70,63,59,49,77,60,37,30.06,29.97,16,1,16,0.00
2013-6-6,79,75,73,72,68,62,91,79,67,30.00,29.83,16,0,16,0.08
2013-6-7,80,77,75,74,72,67,94,84,70,29.83,29.53,11,0,11,0.04
2013-6-8,82,77,75,74,73,72,93,87,73,30.06,29.83,14,0,14,0.00
2013-6-9,80,77,75,77,75,73,95,92,88,30.12,30.06,10,1,10,0.00
2013-6-10,79,79,79,75,75,75,89,89,89,30.06,30.06,0,0,0,0.00
2013-6-11,79,79,79,75,75,75,89,89,89,30.06,30.06,0,0,0,0.00
2013-6-12,79,79,79,75,75,75,89,89,89,30.06,30.06,0,0,0,0.00